TimeEDT,TemperatureF,Dew PointF,Humidity,Sea Level PressureIn,VisibilityMPH,Wind Direction,Wind SpeedMPH,Gust SpeedMPH,PrecipitationIn,Events,Conditions,WindDirDegrees,DateUTC
12:06 AM,72.9,64.0,74,29.78,10.0,WSW,3.5,-,N/A,,Clear,240,2013-05-16 04:06:00
12:26 AM,72.0,64.2,77,29.78,10.0,Calm,Calm,-,N/A,,Clear,0,2013-05-16 04:26:00
12:46 AM,71.8,64.4,77,29.79,10.0,WSW,3.5,-,N/A,,Clear,250,2013-05-16 04:46:00
3:47 AM,67.8,64.2,88,29.79,10.0,SW,5.8,-,N/A,,Clear,230,2013-05-16 07:47:00
4:07 AM,68.4,64.0,86,29.79,10.0,WSW,3.5,-,N/A,,Clear,250,2013-05-16 08:07:00
4:27 AM,68.2,63.5,85,29.78,10.0,Calm,Calm,-,N/A,,Clear,0,2013-05-16 08:27:00
4:47 AM,67.6,63.5,87,29.78,10.0,West,3.5,-,N/A,,Clear,260,2013-05-16 08:47:00
5:07 AM,68.0,63.0,84,29.79,10.0,West,3.5,-,N/A,,Clear,260,2013-05-16 09:07:00
5:27 AM,67.8,62.4,83,29.79,10.0,Calm,Calm,-,N/A,,Clear,0,2013-05-16 09:27:00
5:47 AM,68.0,61.9,81,29.80,10.0,Calm,Calm,-,N/A,,Clear,0,2013-05-16 09:47:00
5:55 AM,66.2,60.8,83,29.80,10.0,Calm,Calm,-,N/A,,Mostly Cloudy,0,2013-05-16 09:55:00
6:07 AM,67.1,61.5,82,29.81,10.0,Calm,Calm,-,N/A,,Clear,0,2013-05-16 10:07:00
6:27 AM,67.3,61.2,81,29.82,10.0,Calm,Calm,-,N/A,,Clear,0,2013-05-16 10:27:00
6:47 AM,68.9,60.6,75,29.82,10.0,Calm,Calm,-,N/A,,Clear,0,2013-05-16 10:47:00
6:53 AM,68.0,60.8,78,29.83,10.0,Calm,Calm,-,N/A,,Mostly Cloudy,0,2013-05-16 10:53:00
7:07 AM,69.1,60.4,74,29.83,10.0,Calm,Calm,-,N/A,,Clear,0,2013-05-16 11:07:00
7:27 AM,71.4,61.7,71,29.84,10.0,Calm,Calm,-,N/A,,Clear,0,2013-05-16 11:27:00
7:42 AM,74.3,62.1,65,29.84,10.0,West,3.5,-,N/A,,Clear,260,2013-05-16 11:42:00
7:53 AM,77.0,60.8,57,29.84,10.0,West,4.6,-,N/A,,Mostly Cloudy,260,2013-05-16 11:53:00
8:53 AM,77.0,62.6,61,29.87,10.0,West,4.6,-,N/A,,Mostly Cloudy,270,2013-05-16 12:53:00
9:53 AM,78.8,59.0,51,29.87,10.0,NW,9.2,-,N/A,,Mostly Cloudy,310,2013-05-16 13:53:00
10:53 AM,80.6,60.8,51,29.88,10.0,NW,11.5,-,N/A,,Mostly Cloudy,310,2013-05-16 14:53:00
11:53 AM,82.4,60.8,48,29.87,10.0,NNW,11.5,-,N/A,,Mostly Cloudy,330,2013-05-16 15:53:00
12:53 PM,80.6,62.6,54,29.88,10.0,WNW,9.2,-,N/A,,Overcast,300,2013-05-16 16:53:00
1:47 PM,82.4,62.6,51,29.87,10.0,West,5.8,-,N/A,,Overcast,260,2013-05-16 17:47:00
2:55 PM,64.4,62.6,94,29.85,10.0,West,5.8,-,N/A,,Mostly Cloudy,270,2013-05-16 18:55:00
3:56 PM,84.2,62.6,48,29.85,10.0,West,8.1,-,N/A,,Scattered Clouds,270,2013-05-16 19:56:00
4:50 PM,84.2,62.6,48,29.84,10.0,West,9.2,17.3,N/A,,Scattered Clouds,280,2013-05-16 20:50:00
5:45 PM,82.4,62.6,51,29.85,10.0,NW,9.2,17.3,N/A,,Scattered Clouds,320,2013-05-16 21:45:00
6:52 PM,78.8,59.0,51,29.87,10.0,NW,12.7,-,N/A,,Scattered Clouds,310,2013-05-16 22:52:00
7:56 PM,75.2,59.0,57,29.88,10.0,WNW,5.8,-,N/A,,Scattered Clouds,290,2013-05-16 23:56:00
8:57 PM,73.4,59.0,61,29.89,10.0,WNW,5.8,-,N/A,,Clear,290,2013-05-17 00:57:00
10:49 PM,71.8,60.8,68,29.92,10.0,NW,6.9,-,N/A,,Clear,310,2013-05-17 02:49:00
11:09 PM,71.2,60.8,69,29.92,10.0,WNW,5.8,-,N/A,,Clear,300,2013-05-17 03:09:00
11:29 PM,70.7,60.8,71,29.93,10.0,WNW,6.9,-,N/A,,Clear,300,2013-05-17 03:29:00
11:49 PM,70.7,60.8,71,29.93,10.0,NW,9.2,-,N/A,,Clear,310,2013-05-17 03:49:00